Tacoma Narrows, WA
on Thursday, January 3, 2013

Thursday
Previous Day Next Day
Daily Summary
 ActualAverageRecord
Temperature
Mean Temperature °F / °C °F / °C  
Max Temperature 39°F / 4°C 43°F / 6°C 53°F / 11°C (2003)
Min Temperature 30°F / -1°C 36°F / 2°C 25°F / -3°C (2004)
Degree Days
Heating Degree Days 30    
Moisture
Dew Point 31°F / -1°C   
Average Humidity 88    
Maximum Humidity 100    
Minimum Humidity 65    
Precipitation
Precipitation 0.14 in / 3.56 cm in / cm in / cm ()
Wind
Wind Speed 1 mph / 2 km/h   
Max Wind Speed 5 mph / 8 km/h   
Max Gust Speed mph / km/h   
Visibility 4 miles / 7 kilometers   
Events Fog , Rain   
Averages and records for this station are not official NWS values.
Key: T is trace of precipitation, MM is missing value
Source: NWS Daily Summary
Seasonal Weather Averages
Time(PST)TemperatureDew PointHumidity Pressure Visibility Wind DirectionWind SpeedGust SpeedPrecipitationEvents Conditions
12:12 AM 30.2°F / -1.0°C 28.4°F / -2.0°C 93% 30.18 in / 1021.9 hPa 0.2 miles / 0.4 kilometers Calm Calm - N/A Fog Light Freezing Fog
12:53 AM 34.0°F / 1.1°C 32.0°F / 0.0°C 92% 30.20 in / 1022.5 hPa 0.2 miles / 0.4 kilometers Calm Calm - N/A Fog Fog
1:53 AM 33.1°F / 0.6°C 30.9°F / -0.6°C 92% 30.21 in / 1022.8 hPa 0.2 miles / 0.4 kilometers South 3.5 mph / 5.6 km/h - N/A Fog Fog
2:53 AM 32.0°F / 0.0°C 30.0°F / -1.1°C 92% 30.20 in / 1022.6 hPa 0.2 miles / 0.4 kilometers Calm Calm - N/A Fog Fog
3:53 AM 30.9°F / -0.6°C 28.9°F / -1.7°C 92% 30.19 in / 1022.1 hPa 0.2 miles / 0.4 kilometers Calm Calm - N/A Fog Light Freezing Fog
4:17 AM 30.2°F / -1.0°C 30.2°F / -1.0°C 100% 30.16 in / 1021.2 hPa 0.5 miles / 0.8 kilometers Calm Calm - N/A Fog Light Freezing Fog
4:32 AM 32.0°F / 0.0°C 30.2°F / -1.0°C 93% 30.16 in / 1021.2 hPa 0.2 miles / 0.4 kilometers Calm Calm - N/A Fog Fog
4:53 AM 30.9°F / -0.6°C 30.0°F / -1.1°C 96% 30.17 in / 1021.6 hPa 0.2 miles / 0.4 kilometers Calm Calm - N/A Fog Light Freezing Fog
5:53 AM 30.9°F / -0.6°C 28.9°F / -1.7°C 92% 30.15 in / 1021.0 hPa 0.2 miles / 0.4 kilometers Calm Calm - N/A Fog Light Freezing Fog
6:53 AM 30.9°F / -0.6°C 30.0°F / -1.1°C 96% 30.15 in / 1020.8 hPa 0.2 miles / 0.4 kilometers Calm Calm - N/A Fog Light Freezing Fog
7:53 AM 30.0°F / -1.1°C 28.0°F / -2.2°C 92% 30.14 in / 1020.4 hPa 0.2 miles / 0.4 kilometers Calm Calm - N/A Fog Light Freezing Fog
8:46 AM 30.2°F / -1.0°C 28.4°F / -2.0°C 93% 30.13 in / 1020.2 hPa 0.2 miles / 0.4 kilometers Calm Calm - N/A Fog Light Freezing Fog
8:53 AM 30.0°F / -1.1°C 28.9°F / -1.7°C 96% 30.15 in / 1020.9 hPa 0.2 miles / 0.4 kilometers Calm Calm - N/A Fog Light Freezing Fog
9:08 AM 30.2°F / -1.0°C 28.4°F / -2.0°C 93% 30.13 in / 1020.2 hPa 0.2 miles / 0.4 kilometers Calm Calm - N/A Fog Light Freezing Fog
9:53 AM 30.9°F / -0.6°C 30.0°F / -1.1°C 96% 30.17 in / 1021.4 hPa 0.2 miles / 0.4 kilometers Calm Calm - N/A Fog Light Freezing Fog
10:11 AM 32.0°F / 0.0°C 30.2°F / -1.0°C 93% 30.15 in / 1020.9 hPa 0.2 miles / 0.4 kilometers WNW 4.6 mph / 7.4 km/h - N/A Fog Fog
10:53 AM 34.0°F / 1.1°C 32.0°F / 0.0°C 92% 30.17 in / 1021.5 hPa 0.5 miles / 0.8 kilometers Calm Calm - N/A Fog Fog
11:14 AM 33.8°F / 1.0°C 33.8°F / 1.0°C 100% 30.14 in / 1020.5 hPa 3.0 miles / 4.8 kilometers Calm Calm - N/A   Scattered Clouds
11:53 AM 37.9°F / 3.3°C 30.9°F / -0.6°C 76% 30.15 in / 1020.9 hPa 10.0 miles / 16.1 kilometers Calm Calm - N/A   Clear
12:53 PM 39.9°F / 4.4°C 28.9°F / -1.7°C 65% 30.13 in / 1020.3 hPa 10.0 miles / 16.1 kilometers Calm Calm - N/A   Clear
1:53 PM 39.9°F / 4.4°C 30.0°F / -1.1°C 68% 30.13 in / 1020.2 hPa 10.0 miles / 16.1 kilometers SW 4.6 mph / 7.4 km/h - N/A   Clear
2:53 PM 37.9°F / 3.3°C 28.9°F / -1.7°C 70% 30.14 in / 1020.7 hPa 10.0 miles / 16.1 kilometers SW 3.5 mph / 5.6 km/h - N/A   Scattered Clouds
3:53 PM 39.0°F / 3.9°C 28.0°F / -2.2°C 65% 30.15 in / 1020.8 hPa 10.0 miles / 16.1 kilometers WSW 4.6 mph / 7.4 km/h - N/A   Overcast
4:53 PM 37.9°F / 3.3°C 28.0°F / -2.2°C 68% 30.12 in / 1020.0 hPa 10.0 miles / 16.1 kilometers NNE 4.6 mph / 7.4 km/h - N/A   Overcast
5:53 PM 37.0°F / 2.8°C 32.0°F / 0.0°C 82% 30.14 in / 1020.6 hPa 10.0 miles / 16.1 kilometers Calm Calm - 0.00 in / 0.0 cm Rain Light Rain
6:53 PM 37.0°F / 2.8°C 32.0°F / 0.0°C 82% 30.13 in / 1020.3 hPa 9.0 miles / 14.5 kilometers Calm Calm - 0.06 in / 1.5 cm Rain Light Rain
7:53 PM 36.0°F / 2.2°C 33.1°F / 0.6°C 89% 30.14 in / 1020.7 hPa 9.0 miles / 14.5 kilometers WNW 3.5 mph / 5.6 km/h - 0.02 in / 0.5 cm   Overcast
8:53 PM 35.1°F / 1.7°C 33.1°F / 0.6°C 92% 30.14 in / 1020.5 hPa 10.0 miles / 16.1 kilometers NW 3.5 mph / 5.6 km/h - 0.01 in / 0.3 cm   Overcast
9:53 PM 36.0°F / 2.2°C 33.1°F / 0.6°C 89% 30.15 in / 1021.0 hPa 6.0 miles / 9.7 kilometers North 3.5 mph / 5.6 km/h - 0.02 in / 0.5 cm Rain Light Rain
10:01 PM 35.6°F / 2.0°C 33.8°F / 1.0°C 93% 30.14 in / 1020.5 hPa 6.0 miles / 9.7 kilometers North 3.5 mph / 5.6 km/h - 0.01 in / 0.3 cm Rain Light Rain
10:53 PM 36.0°F / 2.2°C 34.0°F / 1.1°C 93% 30.17 in / 1021.5 hPa 6.0 miles / 9.7 kilometers Calm Calm - 0.01 in / 0.3 cm Rain Light Rain
11:38 PM 37.4°F / 3.0°C 35.6°F / 2.0°C 93% 30.16 in / 1021.2 hPa 7.0 miles / 11.3 kilometers Calm Calm - 0.01 in / 0.3 cm   Overcast
11:53 PM 37.0°F / 2.8°C 34.0°F / 1.1°C 89% 30.17 in / 1021.7 hPa 5.0 miles / 8.0 kilometers Calm Calm - 0.02 in / 0.5 cm Rain Light Rain
Moon Phase
Jan. 03 Jan. 04 Jan. 11 Jan. 18 Jan. 26
Sunrise:07:57 AM (PST) Moon Rise:11:44 PM (PST)1/3
Sunset:04:33 PM (PST) Moon Set:10:44 AM (PST)1/3

Copyright © 2014 The Weather Underground, Inc.